EW5908 Weather Reports


Display with metric or nautical units.
time (UTC)temp
F
wind
direction
speed
MPH
gust
MPH
rain 1hr
in
rain 24hr
in
rain mn
in
humidity
%
barometer
mb
20240227101231 40 344 0.0 0.0 0.00 0.02 0.00 76 990.4
20240227100233 40 344 0.0 0.0 0.00 0.02 0.00 74 990.5
20240227095234 41 344 0.0 0.0 0.00 0.02 0.00 74 990.8
20240227095230 41 344 0.0 0.0 0.00 0.02 0.00 74 990.7
20240227094341 41 344 0.0 0.0 0.00 0.02 0.00 72 991.0
20240227093231 41 344 0.0 0.0 0.00 0.02 0.00 74 990.8
20240227092230 41 344 0.0 0.0 0.00 0.02 0.00 72 990.9
20240227091341 41 344 0.0 0.0 0.00 0.02 0.00 73 991.2
20240227085229 41 344 0.0 0.0 0.00 0.02 0.00 72 991.3
20240227084235 42 344 0.0 0.0 0.00 0.02 0.00 69 991.7
20240227084230 41 344 0.0 0.0 0.00 0.02 0.00 72 991.5
20240227083228 41 344 0.0 0.0 0.00 0.02 0.00 71 991.6
20240227081229 43 344 0.0 0.0 0.00 0.02 0.00 69 991.7
20240227080231 43 344 0.0 0.0 0.00 0.02 0.00 68 991.7
20240227075227 43 344 0.0 0.0 0.00 0.02 0.00 68 991.9
20240227074228 43 344 0.0 0.0 0.00 0.02 0.00 67 992.0
20240227073228 44 344 0.0 0.0 0.00 0.02 0.00 65 992.1
20240227072228 45 344 0.0 0.0 0.00 0.02 0.00 64 992.1
20240227071228 46 344 0.0 0.0 0.00 0.02 0.00 63 992.3
20240227070226 46 344 0.0 0.0 0.00 0.02 0.00 63 992.4
20240227065227 46 344 0.0 0.0 0.00 0.02 0.00 62 992.3
20240227064234 46 344 0.0 0.0 0.00 0.02 0.00 62 992.3
20240227064227 46 344 0.0 0.0 0.00 0.02 0.00 63 992.3
20240227062231 47 344 0.0 0.0 0.00 0.02 0.00 61 992.2
20240227062227 46 344 0.0 0.0 0.00 0.02 0.00 61 992.2
20240227061336 47 344 0.0 0.0 0.00 0.02 0.02 60 992.5
20240227060226 47 344 0.0 0.0 0.00 0.02 0.00 61 992.4
20240227054226 48 344 0.0 0.0 0.00 0.02 0.02 57 992.4
20240227053225 49 344 0.0 0.0 0.00 0.02 0.02 58 992.5
20240227052225 48 344 0.0 0.0 0.00 0.02 0.02 58 992.6
20240227051225 49 344 0.0 0.0 0.00 0.02 0.02 56 992.7
20240227050225 49 344 0.0 0.0 0.00 0.02 0.02 56 992.8
20240227045230 50 344 0.0 0.0 0.00 0.02 0.02 55 992.7
20240227045226 50 344 0.0 0.0 0.00 0.02 0.02 55 992.7
20240227043224 50 344 0.0 0.0 0.00 0.02 0.02 54 992.7
20240227042225 51 344 0.0 0.0 0.00 0.02 0.02 54 992.6
20240227041228 51 344 0.0 0.0 0.00 0.02 0.02 54 992.7
20240227041224 51 344 0.0 0.0 0.00 0.02 0.02 54 992.8
20240227040335 51 344 0.0 0.0 0.00 0.02 0.02 53 992.9
20240227034223 52 344 0.0 0.0 0.00 0.02 0.02 52 993.0
20240227033223 52 344 0.0 0.0 0.00 0.02 0.02 51 993.2
20240227032230 53 344 0.0 0.0 0.00 0.02 0.02 51 993.2
20240227032224 52 344 0.0 0.0 0.00 0.02 0.02 51 993.1
20240227030222 53 344 0.0 0.0 0.00 0.02 0.02 50 993.2
20240227025223 53 344 0.0 0.0 0.00 0.02 0.02 49 993.1
20240227024222 54 344 0.0 0.0 0.00 0.02 0.02 48 993.2
20240227023222 55 344 0.0 0.0 0.00 0.02 0.02 47 993.2
20240227022224 55 344 0.0 0.0 0.00 0.02 0.02 47 993.1
20240227021221 55 344 0.0 0.0 0.00 0.02 0.02 46 993.2
20240227020222 56 344 0.0 0.0 0.00 0.02 0.02 45 993.2
20240227015221 57 344 0.0 0.0 0.00 0.02 0.02 44 993.3
20240227014221 57 344 0.0 0.0 0.00 0.02 0.02 43 993.2
20240227013221 58 344 0.0 0.0 0.00 0.02 0.02 43 993.3
20240227012222 58 302 0.0 0.0 0.00 0.02 0.02 41 993.3
20240227011222 58 302 0.0 0.0 0.00 0.02 0.02 41 993.3
20240227010220 59 302 0.0 0.0 0.02 0.02 0.02 40 993.2
20240227005221 59 302 0.0 0.0 0.02 0.02 0.02 39 993.2
20240227004224 60 302 0.0 0.0 0.02 0.02 0.02 38 993.1
20240227004220 60 302 0.0 0.0 0.02 0.02 0.02 38 993.2
20240227002218 61 302 0.0 0.0 0.02 0.02 0.02 37 993.1
20240227001225 62 302 0.0 0.0 0.00 0.00 0.00 35 992.9
20240227001221 61 302 0.0 0.0 0.02 0.02 0.02 36 992.9
20240226235219 63 302 0.0 0.0 0.00 0.00 0.00 35 993.0
20240226234220 63 309 0.0 0.0 0.00 0.00 0.00 34 992.9
20240226233217 64 223 0.0 0.0 0.00 0.00 0.00 34 992.7
20240226232222 64 179 0.0 0.0 0.00 0.00 0.00 34 992.6
20240226232218 64 179 0.0 0.0 0.00 0.00 0.00 35 992.7
20240226230218 65 179 0.0 0.0 0.00 0.00 0.00 34 992.7
20240226225218 65 179 0.0 0.0 0.00 0.00 0.00 34 992.7
20240226224218 65 200 0.0 0.0 0.00 0.00 0.00 35 992.9
20240226223223 64 157 0.0 0.0 0.00 0.00 0.00 37 992.9
20240226223219 64 190 0.0 0.0 0.00 0.00 0.00 36 992.8
20240226221219 65 135 0.0 0.0 0.00 0.01 0.00 37 992.9
20240226220217 65 171 0.0 0.0 0.00 0.02 0.00 37 992.9
20240226215216 64 118 0.0 0.0 0.00 0.03 0.00 37 992.9
20240226214216 64 137 0.0 0.0 0.00 0.03 0.00 37 992.9
20240226213219 64 180 0.0 0.0 0.00 0.03 0.00 37 992.9
20240226212217 63 142 0.0 0.0 0.00 0.03 0.00 38 993.0
20240226211218 63 164 0.0 0.0 0.00 0.03 0.00 37 993.1
20240226210216 63 183 0.0 0.0 0.00 0.03 0.00 38 993.2
20240226205215 63 155 0.0 0.0 0.00 0.03 0.00 38 993.3
20240226204220 62 209 0.0 0.0 0.00 0.03 0.00 38 993.5
20240226204216 62 245 0.0 0.0 0.00 0.03 0.00 38 993.4
20240226202214 62 179 0.0 0.0 0.00 0.03 0.00 38 993.9
20240226201219 61 234 0.0 0.0 0.00 0.04 0.00 39 994.3
20240226201215 62 176 0.0 0.0 0.00 0.04 0.00 40 994.1
20240226195215 61 265 0.0 0.0 0.00 0.04 0.00 39 994.6
20240226194213 60 192 0.0 0.0 0.00 0.04 0.00 40 994.8
20240226193214 61 179 0.0 0.0 0.00 0.04 0.00 40 995.0
20240226192215 61 166 0.0 0.0 0.00 0.04 0.00 40 995.1
20240226191326 57 169 0.0 0.0 0.00 0.04 0.00 43 995.8
20240226191214 60 164 0.0 0.0 0.00 0.04 0.00 42 995.3
20240226190216 58 164 0.0 0.0 0.00 0.04 0.00 44 995.5
20240226190212 58 157 0.0 0.0 0.00 0.04 0.00 43 995.3
20240226183213 57 228 0.0 0.0 0.00 0.04 0.00 44 995.9
20240226182214 56 145 0.0 0.0 0.00 0.04 0.00 46 996.1
20240226181212 56 182 0.0 0.0 0.00 0.04 0.00 46 996.4
20240226180212 55 186 0.0 0.0 0.00 0.04 0.00 47 996.8
20240226175216 54 161 0.0 0.0 0.00 0.04 0.00 50 997.4
20240226175212 55 189 0.0 0.0 0.00 0.04 0.00 48 997.0
20240226173213 53 196 0.0 0.0 0.00 0.04 0.00 51 997.6
20240226172217 51 180 0.0 0.0 0.00 0.04 0.00 53 998.1
20240226172211 52 161 0.0 0.0 0.00 0.04 0.00 52 997.8
20240226170216 50 169 0.0 0.0 0.00 0.04 0.00 55 998.5
20240226170212 51 149 0.0 0.0 0.00 0.04 0.00 54 998.3
20240226164211 49 140 0.0 0.0 0.00 0.04 0.00 55 998.7
20240226163214 47 161 0.0 0.0 0.00 0.04 0.00 57 999.1
20240226163210 47 147 0.0 0.0 0.00 0.04 0.00 57 999.0
20240226161210 46 178 0.0 0.0 0.00 0.04 0.00 58 999.2
20240226160210 45 178 0.0 0.0 0.00 0.04 0.00 58 999.4
20240226155214 43 128 0.0 0.0 0.00 0.04 0.00 61 999.9
20240226155209 44 182 0.0 0.0 0.00 0.04 0.00 59 999.6
20240226153209 42 124 0.0 0.0 0.00 0.04 0.00 62 1000.0
20240226152209 40 172 0.0 0.0 0.00 0.04 0.00 63 1000.4
20240226151208 39 183 0.0 0.0 0.00 0.04 0.00 65 1000.6
20240226150211 38 154 0.0 0.0 0.00 0.04 0.00 65 1000.9
20240226145209 38 158 0.0 0.0 0.00 0.04 0.00 66 1001.0
20240226144208 37 149 0.0 0.0 0.00 0.04 0.00 66 1001.2
20240226143208 37 140 0.0 0.0 0.00 0.04 0.00 66 1001.5
20240226142208 36 161 0.0 0.0 0.00 0.04 0.00 67 1001.7
20240226141208 36 141 0.0 0.0 0.00 0.04 0.00 68 1001.9
20240226140209 35 142 0.0 0.0 0.00 0.04 0.00 69 1002.1
20240226135207 35 149 0.0 0.0 0.00 0.04 0.00 70 1002.4
20240226134207 34 154 0.0 0.0 0.00 0.04 0.00 71 1002.4
20240226133207 34 161 0.0 0.0 0.00 0.04 0.00 71 1002.7
20240226132207 34 137 0.0 0.0 0.00 0.04 0.00 71 1003.1
20240226131207 34 151 0.0 0.0 0.00 0.04 0.00 71 1003.3
20240226130207 34 148 0.0 0.0 0.00 0.04 0.00 72 1003.3
20240226125205 33 138 0.0 0.0 0.00 0.04 0.00 72 1003.5
20240226124206 33 123 0.0 0.0 0.00 0.04 0.00 73 1003.4
20240226123211 33 141 0.0 0.0 0.00 0.04 0.00 74 1003.8
20240226123207 33 120 0.0 0.0 0.00 0.04 0.00 73 1003.6
20240226121205 33 123 0.0 0.0 0.00 0.04 0.00 74 1004.3
20240226120205 33 104 0.0 0.0 0.00 0.04 0.00 73 1004.6
20240226115210 33 165 0.0 0.0 0.00 0.04 0.00 74 1004.8
20240226115206 33 154 0.0 0.0 0.00 0.04 0.00 73 1004.6
20240226113205 33 165 0.0 0.0 0.00 0.04 0.00 74 1004.8
20240226112206 33 158 0.0 0.0 0.00 0.04 0.00 74 1005.0
20240226111204 33 145 0.0 0.0 0.00 0.04 0.00 74 1005.1
20240226110204 34 158 0.0 0.0 0.00 0.04 0.00 73 1005.4
20240226105204 34 161 0.0 0.0 0.00 0.04 0.00 73 1005.6
20240226104203 34 130 0.0 0.0 0.00 0.04 0.00 75 1005.9
20240226103203 33 148 0.0 0.0 0.00 0.04 0.00 78 1006.1
20240226102203 33 138 0.0 0.0 0.00 0.04 0.00 77 1006.0